Regional Weather Roundup
Issued by NWS Wakefield, VA

Home | Current Version | Previous Version | Text Only | Print | Product List | Glossary Off
Versions: 1 2 3 4 5 6 7 8 9 10 11 12 13 14 15 16 17 18 19 20 21 22 23 24 25 26 27 28 29 30 31 32 33 34 35 36 37 38 39 40 41 42 43 44 45 46 47 48 49

000
ASUS41 KAKQ 271715
RWRAKQ

REGIONAL WEATHER ROUNDUP
NATIONAL WEATHER SERVICE WAKEFIELD VA
100 PM EDT THU AUG 27 2015

Note: "fair" indicates few or no clouds below 12,000 feet with no
significant weather and/or obstructions to visibility. * = Denotes
station may not report precipitation (e.g., rain,snow,etc.),
thunder or fog.

VAZ042-051-052>054-056-271800-
NORTHERN VIRGINIA

CITY           SKY/WX    TMP DP  RH WIND       PRES   REMARKS
WASH NATIONAL  MOSUNNY   78  55  44 E6        30.12F
DULLES         MOSUNNY   78  54  43 N8        30.13F
FORT BELVOIR   SUNNY     78  55  44 W8        30.12F
QUANTICO       MOSUNNY   77  54  44 E6        30.13F
FREDERICKSBRG* SUNNY     79  55  43 N8        30.12F
STAFFORD*      SUNNY     76  54  46 N7        30.17F
WARRENTON      MOSUNNY   79  59  50 NW3       30.13F
CULPEPER*      SUNNY     75  56  51 N6        30.14F
MANASSAS*      SUNNY     77  55  47 CALM      30.13F
LEESBURG*      MOSUNNY   77  59  53 N9        30.14F
WINCHESTER     CLOUDY    77  50  38 NW6       30.15S
FRONT ROYAL*   PTSUNNY   73  52  46 W5        30.13F
LURAY*         CLOUDY    73  52  46 NW6       30.15S
$$

VAZ048-049-060>072-079>083-271800-
CENTRAL AND SOUTH CENTRAL VIRGINIA

CITY           SKY/WX    TMP DP  RH WIND       PRES   REMARKS
RICHMOND       PTSUNNY   79  57  46 VRB3      30.11F
CHESTERFIELD*  FAIR      81  52  36 N5        30.12F
PETERSBURG*    SUNNY     80  63  56 NE9       30.12F
HANOVER        SUNNY     78  57  48 VRB7      30.13F
TAPPAHANNOCK*  SUNNY     78  53  41 CALM      30.12F
QUINTON*       FAIR      76  61  59 NE6       30.11F
CHARLOTTSVILLE MOSUNNY   77  55  46 E6        30.14F
GORDONSVILLE*  FAIR      78  54  43 CALM      30.13S
ORANGE*        SUNNY     79  54  41 NW5       30.14F
LOUISA*        SUNNY     81  54  39 N5        30.12F
BUMPASS*       FAIR      77  56  47 NW3       30.13F
FARMVILLE*     MOSUNNY   80  53  38 CALM      30.11F
CREWE*         FAIR     N/A N/A N/A E3        30.12F
FORT PICKETT*  FAIR      77  59  53 E5        30.12F
CHASE CITY*    FAIR      80  60  50 NE3       30.11F
CLARKSVILLE*   FAIR      79  59  50 E7        30.10F
SOUTH HILL*    SUNNY     76  61  59 NE5       30.17F
LAWRENCEVILLE* FAIR      79  63  57 NE6       30.11F
EMPORIA*       MOSUNNY   77  63  61 N6        30.11F
$$

VAZ088>098-271800-
SOUTHEAST VIRGINIA

CITY           SKY/WX    TMP DP  RH WIND       PRES   REMARKS
NORFOLK        CLOUDY    80  57  45 NE12      30.10F
VIRGINIA BEACH CLOUDY    81  59  47 NE12      30.10S
NORFOLK NAVAL  CLOUDY    79  58  48 N13       30.12F
WEST POINT*    PTSUNNY   82  55  38 CALM      30.12F
SALUDA*        FAIR      76  62  62 CALM      30.11S
NEWPORT NEWS   CLOUDY    78  59  51 NE9       30.11F
LANGLEY AFB    CLOUDY    77  60  55 NE12      30.09F
FORT EUSTIS    CLOUDY    79  58  47 NE6       30.09F
WILLIAMSBURG*  PTSUNNY   82  64  54 CALM      30.11F
HR EXEC AP*      N/A     81  59  47 NE10      30.12S
FRANKLIN*      CLOUDY    78  62  57 NE12      30.11S
WAKEFIELD      PTSUNNY   79  62  56 VRB5      30.11F
$$

VAZ020-022-025-037-045-271800-
WEST CENTRAL AND SOUTHWEST VIRGINIA

CITY           SKY/WX    TMP DP  RH WIND       PRES   REMARKS
STAUNTON*      PTSUNNY   76  54  45 E5        30.18S
WAYNESBORO*    CLOUDY    75  54  47 N3        30.16F
HOT SPRINGS VA PTSUNNY   64  54  69 W6        30.23S
LYNCHBURG      PTSUNNY   76  56  49 SE6       30.15F
DANVILLE       MOSUNNY   80  60  50 VRB6      30.12F
SOUTH BOSTON*  FAIR      80  55  41 E6        30.11F
MARTINSVILLE   SUNNY     79  57  45 NE7       30.16F
ROANOKE        PTSUNNY   74  56  53 CALM      30.17F
BLACKSBURG     CLOUDY    71  59  65 NE5       30.21F
DUBLIN*        CLOUDY    73  60  63 NE3       30.19F
MARION*        SUNNY     74  58  58 CALM      30.20F
HILLSVILLE*    CLOUDY    68  59  71 SW3       30.18F
RICHLANDS*     FAIR      71  58  63 NE5       30.19F
WISE*          SUNNY     72  54  53 NE7       30.21F
ABINGDON*      SUNNY     76  57  50 W3        30.16F
$$

MDZ021>025-VAZ099-100-271800-
SOUTHERN MARYLAND AND THE DELMARVA PENINSULA

CITY           SKY/WX    TMP DP  RH WIND       PRES   REMARKS
PATUXENT RIVER PTSUNNY   77  60  55 NE8       30.11F
BAY BRIDGE APT   N/A     73  55  53 N6        30.12F
LEONARDTOWN    MOSUNNY   75  55  50 CALM      30.13F
DOVER          MOSUNNY   76  61  57 NE6       30.09F
GEORGETOWN     CLOUDY    75  57  53 NW6       30.11F
EASTON         PTSUNNY   77  57  50 N5        30.15F
CAMBRIDGE      MOSUNNY   77  55  47 NW5       30.10F
SALISBURY      CLOUDY    75  58  55 NW7       30.10F
OCEAN CITY     CLOUDY    78  56  46 NW5       30.09F
WALLOPS ISLAND CLOUDY    79  58  48 VRB3      30.11F
ACCOMACK*      CLOUDY    75  59  57 N7        30.11S
$$

NCZ012>017-030>032-271800-
NORTH CENTRAL AND EASTERN NORTH CAROLINA

CITY           SKY/WX    TMP DP  RH WIND       PRES   REMARKS
ROANOKE RAPIDS FAIR      79  61  53 NE12      30.10F
RALEIGH        PTSUNNY   80  60  50 NE8       30.09F
ELIZABETH CITY CLOUDY    78  64  61 NE18      30.09S
AHOSKIE*       MOSUNNY   76  61  59 N12       30.10S
EDENTON*       RAIN      71  66  83 CALM      30.09F
CURRITUCK*     CLOUDY    79  59  50 NE10      30.10S
KILL DEVIL HLS CLOUDY    80  65  61 NE8G16    30.06F
MANTEO         DRIZZLE   75  68  78 NE13      30.07F
CAPE HATTERAS  CLOUDY    78  71  79 NE12G22   30.03F
TARBORO*       CLOUDY    78  62  57 NE9G16    30.09S
GOLDSBORO      PTSUNNY   78  66  66 NE14G24   30.06S
WASHINGTON     CLOUDY    73  68  85 NE9       30.07R
GREENVILLE     CLOUDY    73  68  83 NE9       30.08F
NEW BERN       CLOUDY    76  70  82 N8        30.06S
WILMINGTON     CLOUDY    79  71  76 NE8       30.02F
$$

VAZ048-271800-
ELSEWHERE

CITY           SKY/WX    TMP DP  RH WIND       PRES   REMARKS
HARRISBURG PA  MOSUNNY   76  56  49 W9        30.12S
BALTIMORE      MOSUNNY   76  55  48 NW8       30.11F
ANNAPOLIS      MOSUNNY   76  55  48 NW5       30.11F
ANDREWS AFB    SUNNY     78  52  40 W7        30.11F
PHILADELPHIA   PTSUNNY   79  53  40 W12       30.09F
HENDERSON NC   MOSUNNY   78  57  48 NE9       30.11F
GREENSBORO     MOSUNNY   78  59  51 E10       30.11F
ROCKY MOUNT    PTSUNNY   83  60  45 NE12G18   30.08F
$$

VAZ100-271800-
MARINE

STATION/POSITION TIME  TEMP    WIND        PRES    WAVE   SWELL
                       AIR SEA DIR/SP/G            HT/PER HT/PER
                 (UTC) (F)     (DEG/KT/KT) (MB)    (FT/S) (FT/S)
BRANDYWINE LGT   1600   70 75  330/  5/  6 1020.0R
CAPE MAY NJ      1600   74 79  320/  5/  8 1019.3R
LEWES DE         1600   71 74  330/  7/  9 1019.6S
15NM E FENWICK I 1650   71 78  320/ 12/ 16 1019.2F   3/ 9   2/ 9
OCEAN-CITY-INLET 1600   74 77   30/  4/  6 1018.8R
WACHAPREAGUE VA  1600   76 77   30/  6/ 10 1019.7F
THOMAS POINT MD  1700   71 79   50/  6/  7 1020.4
GOOSES REEF MD   1700   73 80   20/  6/  8 1020.9F
COVE POINT MD    1600   71      10/  8/ 13 1021.0S
SOLOMONS ISLAND  1600      80                N/A
BISHOPS HEAD MD  1600   74 75   20/  5/  8 1019.1R
PINEY POINT MD   1600          320/  4/  6   N/A
POTOMAC MD       1700   75 80   10/  4/  8 1018.6F   1
CAMBRIDGE MD     1600   72 79  340/  6/  7 1019.2F
LEWISETTA VA     1600   73 78   10/  7/ 10 1019.7F
RAPPAHANNOCK LGT 1600           30/ 11/ 13 1020.4R
STINGRAY PT      1700   74 80   30/  8/ 10 1020.0F   1/ 3
YORK RVR RNG VA  1600   75      50/ 12/ 15 1019.3F
YORKTOWN VA      1600   75 80   30/  8/ 10 1019.5F
JAMESTOWN VA     1700   76 82   70/  4/  8   N/A
DOMINION TERM VA 1600   76      40/  8/ 13 1019.6F
KIPTOPEKE VA     1600      79   30/  6/ 12   N/A
CAPE HENRY VA    1600   75      20/ 14/ 15   N/A
CHESAPEAKE LGHT  1600   75      30/ 14/ 15 1019.9F
WILLOUBY STN VA  1600   74      30/ 13/ 15 1020.6F
CAPE HENRY BUOY  1628      79                N/A     4/11   2/11
1ST LANDING BUOY 1700      79              1019.0F   2/ 4
CAPE CHARLES BUO 1626      79                N/A     4/11   3/11
OFFSHORE WE BUOY 1611      78                N/A     4/10   3/10
64NM E OF VA BCH 1650   77 80   30/ 14/ 17 1018.2S   5/10   3/10
DUCK PIER NC     1600   77 79   40/ 19/ 21 1017.9S
44100 DUCK FRF   1624      79                N/A     5/ 5   2/11
44056 DUCK FRF   1611      78                N/A     5/ 5   2/12
OREGON INLET NC  1600   78 79   40/ 13/ 19 1018.0R
HATTERAS NC      1600   76 81   50/ 14/ 20 1016.8F
DIAMOND SHLS NC  1650   78 82   60/ 17/ 19 1016.1F   5/ 9   3/ 9



USA.gov is the U.S. government's official web portal to all federal, state and local government web resources and services.